Home > Time Zones > World Clock > Weather > U.S.A. > Gary > Past weeks

Flag for U.S.A. Weather past 2 weeks in Gary, Indiana, U.S.A.

Now
48 °F

Clear.


Feels Like: 46 °F
Forecast: 36 / 64 °F
Wind: 5 mph from Southeast

Location: Lansing Municipal Airport

Current Time: Mar 31, 2015 at 8:07:16 PM

Latest Report: Mar 31, 2015 at 7:35 PM


Visibility: 10 mi

Pressure: 29.95 "Hg

Humidity: 58%

Dew point: 33 °F

Location of GaryLocation

Historic Weather in Gary — Graph

°F

Gary temperature yesterday

Maximum temperature yesterday: 62 °F (at 3:15 PM)
Minimum temperature yesterday: 32 °F (at 6:55 AM)
Average temperature yesterday: 48 °F

Past Weeks' High & Low Weather Summary

 TemperatureHumidityPressure
High68 °F (Mar 16, 6:15 PM)93% (Mar 20, 5:15 AM)30.36 "Hg (Mar 20, 5:15 AM)
Low20 °F (Mar 28, 7:15 AM)19% (Mar 18, 1:35 PM)29.69 "Hg (Mar 31, 3:15 AM)
Average37 °F60%30.13 "Hg
* Reported Mar 16 6:15 PM — Mar 31 6:55 PM, Gary, Weather by CustomWeather, © 2015

Note: Actual official high and low records may vary slightly from our data, if they occured in-between our weather recording intervals... More about our weather records

Advertising

Gary weather history for previous 24 hours

 ConditionsComfort  
Time TempWeatherWind HumidityBarometerVisibility
6:55 PM
Tue, Mar 31
51 °FSunny.3 mph52%29.95 "Hg10 mi
6:35 PM51 °FSunny.No wind50%29.96 "Hg10 mi
6:15 PM52 °FSunny.3 mph49%29.96 "Hg10 mi
5:55 PM52 °FSunny.3 mph49%29.96 "Hg10 mi
5:35 PM52 °FSunny.3 mph48%29.95 "Hg10 mi
5:15 PM51 °FSunny.3 mph50%29.95 "Hg10 mi
4:55 PM51 °FSunny.6 mph50%29.95 "Hg10 mi
4:15 PM51 °FSunny.6 mph51%29.95 "Hg10 mi
3:55 PM51 °FSunny.6 mph52%29.96 "Hg10 mi
3:35 PM52 °FSunny.6 mph51%29.96 "Hg10 mi
3:15 PM52 °FSunny.6 mph50%29.96 "Hg10 mi
2:55 PM51 °FSunny.5 mph53%29.96 "Hg10 mi
2:35 PM50 °FSunny.5 mph54%29.96 "Hg10 mi
2:15 PM50 °FSunny.7 mph55%29.96 "Hg10 mi
1:55 PM51 °FSunny.8 mph54%29.96 "Hg10 mi
1:35 PM50 °FSunny.9 mph57%29.96 "Hg10 mi
1:15 PM50 °FScattered clouds.9 mph58%29.96 "Hg10 mi
12:55 PM49 °FScattered clouds.6 mph58%29.96 "Hg10 mi
12:35 PM49 °FScattered clouds.7 mph60%29.96 "Hg10 mi
12:15 PM47 °FScattered clouds.10 mph63%29.96 "Hg10 mi
11:55 AM47 °FBroken clouds.14 mph64%29.96 "Hg10 mi
11:35 AM47 °FOvercast.3 mph64%29.95 "Hg10 mi
11:15 AM47 °FOvercast.12 mph66%29.94 "Hg10 mi
10:55 AM45 °FOvercast.9 mph70%29.93 "Hg10 mi
10:35 AM44 °FOvercast.12 mph73%29.93 "Hg10 mi
10:15 AM45 °FOvercast.10 mph74%29.91 "Hg10 mi
9:55 AM44 °FOvercast.8 mph77%29.90 "Hg10 mi
9:35 AM42 °FLow clouds.7 mph83%29.90 "Hg7 mi
9:15 AM42 °FLow clouds.9 mph84%29.88 "Hg5 mi
8:55 AM41 °FFog.9 mph85%29.88 "Hg5 mi
8:15 AM40 °FFog.10 mph87%29.86 "Hg5 mi
7:55 AM39 °FFog.7 mph89%29.84 "Hg5 mi
7:15 AM39 °FSunny.10 mph85%29.82 "Hg10 mi
6:55 AM41 °FSunny.7 mph78%29.81 "Hg10 mi
6:35 AM42 °FSunny.7 mph74%29.80 "Hg10 mi
6:15 AM43 °FClear.8 mph72%29.77 "Hg10 mi
5:55 AM47 °FClear.10 mph58%29.76 "Hg10 mi
5:15 AM49 °FClear.10 mph53%29.73 "Hg10 mi
4:55 AM49 °FClear.12 mph51%29.72 "Hg10 mi
4:15 AM49 °FClear.10 mph52%29.71 "Hg10 mi
3:55 AM50 °FClear.13 mph49%29.71 "Hg10 mi
3:15 AM51 °FClear.16 mph47%29.69 "Hg10 mi
2:55 AM51 °FClear.15 mph47%29.70 "Hg10 mi
2:15 AM50 °FClear.18 mph49%29.71 "Hg10 mi
1:55 AM51 °FClear.18 mph48%29.73 "Hg10 mi
1:35 AM50 °FClear.17 mph49%29.74 "Hg10 mi
1:15 AM50 °FClear.16 mph50%29.74 "Hg10 mi
12:55 AM51 °FClear.18 mph48%29.75 "Hg10 mi
12:35 AM51 °FClear.17 mph48%29.77 "Hg10 mi
12:15 AM51 °FPassing clouds.17 mph49%29.78 "Hg10 mi
11:55 PM
Mon, Mar 30
51 °FOvercast.14 mph49%29.80 "Hg10 mi
11:35 PM51 °FOvercast.13 mph50%29.81 "Hg10 mi
11:15 PM50 °FPassing clouds.13 mph52%29.82 "Hg10 mi
10:55 PM47 °FPassing clouds.10 mph57%29.83 "Hg10 mi
10:15 PM47 °FClear.5 mph56%29.86 "Hg10 mi
9:55 PM47 °FClear.7 mph56%29.87 "Hg10 mi
9:35 PM47 °FPassing clouds.5 mph55%29.89 "Hg10 mi
9:15 PM45 °FPassing clouds.No wind59%29.90 "Hg10 mi
8:55 PM48 °FPassing clouds.5 mph53%29.91 "Hg10 mi
8:15 PM50 °FPassing clouds.5 mph51%29.93 "Hg10 mi
Weather by CustomWeather, © 2015

See weather overviewHow to use our weather pages